This demonstration page uses our WeatherBlox Daily Observations layout. Learn more.

Left ArrowRight Arrow

39.92423, -83.80882

Hourly Observations for April 16, 2022

Temp ( °F °C ) Dew Point ( °F °C ) Humidity (%) Winds ( mph kmh ) Pressure ( in mb ) Visibility ( mi km ) Precip ( " mm )
12:56 am 00:56 Mostly Cloudy 54 12.2 43 6.1 67 67 SSW 9 15 29.95 1014 10 16 0.00 0.00
1:56 am 01:56 Cloudy with Light Rain 52 11.1 49 9.4 89 89 SW 8 13 29.96 1015 10 16 0.00 0.00
2:17 am 02:17 Cloudy with Light Rain 52 11 52 11 100 100 SSW 14 22 29.98 1015 10 16 0.00 0.00
2:43 am 02:43 Cloudy with Rain 52 11 N/A N/A WSW 22 35 29.98 1015 8 13 0.00 0.00
2:56 am 02:56 Cloudy with Light Rain 52 11 N/A N/A WSW 21 33 29.97 1015 10 16 0.00 0.00
3:56 am 03:56 Cloudy with Light Rain 52 11 N/A N/A WSW 15 24 29.97 1015 10 16 0.00 0.00
4:56 am 04:56 Cloudy with Light Rain 52 11 N/A N/A WSW 10 17 29.97 1015 10 16 0.00 0.00
5:56 am 05:56 Cloudy with Light Rain 52 11 N/A N/A WSW 10 17 29.97 1015 10 16 0.00 0.00
6:56 am 06:56 Cloudy 52 11 N/A N/A WSW 8 13 29.96 1015 10 16 0.00 0.00
7:56 am 07:56 Cloudy with Light Rain 52 11 N/A N/A WSW 10 17 29.99 1016 10 16 0.00 0.00
8:39 am 08:39 Cloudy with Light Rain 52 11 N/A N/A NW 13 20 30.00 1016 10 16 0.00 0.00
8:51 am 08:51 Cloudy with Light Rain 48 9 N/A N/A NNW 13 20 30.02 1016 10 16 0.00 0.00
8:56 am 08:56 Cloudy with Light Rain 48 9 N/A N/A NNW 15 24 30.01 1016 10 16 0.00 0.00
9:56 am 09:56 Cloudy 46 8 N/A N/A NNW 9 15 30.02 1017 10 16 0.00 0.00
10:08 am 10:08 Cloudy 46 8 N/A N/A NNW 12 19 30.04 1017 8 13 0.00 0.00
10:22 am 10:22 Cloudy with Light Rain 46 8 N/A N/A NW 8 13 30.05 1018 9 14 0.00 0.00
10:56 am 10:56 Cloudy with Light Rain 46 8 N/A N/A NNW 7 11 30.04 1017 7 11 0.00 0.00
11:56 am 11:56 Cloudy with Light Rain 46 8 N/A N/A WNW 8 13 30.04 1017 7 11 0.00 0.00
12:18 pm 12:18 Cloudy with Light Rain 46 8 N/A N/A WNW 10 17 30.04 1017 9 14 0.00 0.00
12:41 pm 12:41 Cloudy 48 9 N/A N/A NW 9 15 30.04 1017 10 16 0.00 0.00
12:51 pm 12:51 Cloudy 48 9 N/A N/A WNW 10 17 30.04 1017 10 16 0.00 0.00
12:56 pm 12:56 Cloudy 48 9 N/A N/A WNW 10 17 30.03 1017 9 14 0.00 0.00
1:13 pm 13:13 Cloudy 48 9 48 9 100 100 WNW 10 17 30.03 1017 10 16 0.00 0.00
1:53 pm 13:53 Mostly Cloudy 52 11 48 9 88 88 WNW 14 22 30.01 1016 10 16 0.00 0.00
1:56 pm 13:56 Mostly Cloudy 52 11.1 48 8.9 86 86 WNW 12 19 30.01 1016 10 16 0.00 0.00
2:07 pm 14:07 Mostly Sunny 54 12 45 7 72 72 NW 13 20 30.00 1016 10 16 0.00 0.00
2:56 pm 14:56 Partly Cloudy 57 13.9 44 6.7 62 62 WNW 17 28 30.00 1016 10 16 0.00 0.00
3:56 pm 15:56 Sunny 58 14.4 39 3.9 50 50 WNW 21 33 29.99 1016 10 16 0.00 0.00
4:56 pm 16:56 Sunny 57 13.9 35 1.7 44 44 WNW 16 26 29.99 1016 10 16 0.00 0.00
5:56 pm 17:56 Sunny 56 13.3 31 -0.6 39 39 WNW 17 28 30.01 1016 10 16 0.00 0.00
6:56 pm 18:56 Sunny 54 12.2 28 -2.2 37 37 WNW 20 31 30.02 1017 10 16 0.00 0.00
7:56 pm 19:56 Sunny 51 10.6 28 -2.2 41 41 WNW 18 30 30.04 1017 10 16 0.00 0.00
8:56 pm 20:56 Clear 48 8.9 27 -2.8 44 44 NW 15 24 30.08 1019 10 16 0.00 0.00
9:56 pm 21:56 Clear 45 7.2 28 -2.2 52 52 NNW 17 28 30.12 1020 10 16 0.00 0.00
10:56 pm 22:56 Clear 40 4.4 26 -3.3 58 58 N 13 20 30.15 1021 10 16 0.00 0.00
11:56 pm 23:56 Clear 37 2.8 26 -3.3 65 65 N 8 13 30.17 1022 10 16 0.00 0.00

Powered by AerisWeather